User: anonymous   Login
Location: Earls Croome
(52.0667°N, 2.2000°W)
Time: 02:21:23
(UTC+00:00)
Language:

Cosmos 1892 - Orbit

View from above orbital plane
View from above orbital plane
View from above satellite
View from above satellite

Ground track
Ground track

The orbit data is extracted from the following two-line orbital elements,

1 18421U 87088A   20018.55925729 +.00000111 +00000-0 +39497-5 0  9992
2 18421 082.4991 062.8768 0013959 225.5552 134.4540 15.17016422761678
Epoch (UTC): 18 January 2020 13:25:19
Eccentricity: 0.0013959
inclination: 82.4991°
perigee height: 505 km
apogee height: 524 km
right ascension of ascending node: 62.8768°
argument of perigee: 225.5552°
revolutions per day: 15.17016422
mean anomaly at epoch: 134.4540°
orbit number at epoch: 76167

The dashed part of the orbit path shows where the satellite is in the earth's shadow,  

DLR